This is the latest recevied weather packets stored in our database for station/object KC4LZN. If no packets are shown the sender has not sent any weather packets the latest 10 day(s).
| Time | Temp. | Humidity | Pressure | Rain* | Wind** | Luminosity | Snow |
|---|---|---|---|---|---|---|---|
| 1778024736 | 25° C | 55% | 1015.5 hPa | 0 mm | - | 18 W/m² | - |
| 1778024433 | 25° C | 55% | 1015.5 hPa | 0 mm | - | 22 W/m² | - |
| 1778024131 | 25.56° C | 55% | 1015.6 hPa | 0 mm | - | 29 W/m² | - |
| 1778023828 | 25.56° C | 55% | 1015.5 hPa | 0 mm | - | 36 W/m² | - |
| 1778023526 | 25.56° C | 54% | 1015.6 hPa | 0 mm | - | 44 W/m² | - |
| 1778023223 | 26.11° C | 55% | 1015.4 hPa | 0 mm | - | 49 W/m² | - |
| 1778022920 | 26.11° C | 54% | 1015.5 hPa | 0 mm | - | 58 W/m² | - |
| 1778022619 | 26.11° C | 54% | 1015.2 hPa | 0 mm | - | 58 W/m² | - |
| 1778022315 | 26.67° C | 53% | 1015.4 hPa | 0 mm | - | 74 W/m² | - |
| 1778022012 | 26.67° C | 53% | 1015.5 hPa | 0 mm | - | 81 W/m² | - |
| 1778021709 | 26.67° C | 53% | 1015.4 hPa | 0 mm | - | 93 W/m² | - |
| 1778021405 | 26.67° C | 53% | 1015.4 hPa | 0 mm | - | 104 W/m² | - |
| 1778021102 | 26.67° C | 55% | 1015.6 hPa | 0 mm | - | 90 W/m² | - |
| 1778020799 | 26.67° C | 54% | 1015.6 hPa | 0 mm | - | 104 W/m² | - |
| 1778020496 | 26.67° C | 54% | 1015.5 hPa | 0 mm | - | 146 W/m² | - |
| 1778020192 | 26.67° C | 54% | 1015.4 hPa | 0 mm | - | 118 W/m² | - |
| 1778019889 | 27.22° C | 53% | 1015.5 hPa | 0 mm | - | 143 W/m² | - |
| 1778019584 | 27.22° C | 54% | 1015.7 hPa | 0 mm | - | 167 W/m² | - |
| 1778019282 | 27.22° C | 53% | 1015.6 hPa | 0 mm | - | 211 W/m² | - |
| 1778018979 | 27.22° C | 53% | 1015.5 hPa | 0 mm | - | 158 W/m² | - |
| 1778018676 | 27.78° C | 52% | 1015.7 hPa | 0 mm | - | 226 W/m² | - |
| 1778018373 | 27.78° C | 52% | 1015.4 hPa | 0 mm | - | 244 W/m² | - |
| 1778018071 | 27.78° C | 53% | 1015.6 hPa | 0 mm | - | 202 W/m² | - |
| 1778017769 | 27.78° C | 53% | 1015.4 hPa | 0 mm | - | 118 W/m² | - |
| 1778017467 | 27.78° C | 52% | 1015.5 hPa | 0 mm | - | 125 W/m² | - |
* Rain latest hour (hover to see other rain measurements)
** Current wind speed in m/s (hover to see current wind gust speed)